Location: Ernez
(36.4595°N, 29.8755°E)
Time: 09:22:30
(UTC+00:00)

OAO 3 Rocket - Pass Details

Date: 13 November 2025
Orbit: 613 x 662 km, 35.0° (Epoch: 04 December)

Event Time Altitude Azimuth Distance (km) Brightness Sun altitude
Rises 16:12:04 0° 243° (WSW) 2,901 8.0 -16.0°
Reaches altitude 10° 16:14:28 10° 238° (WSW) 1,987 6.7 -16.5°
Maximum altitude 16:18:55 48° 164° (SSE) 802 3.5 -17.4°
Enters shadow 16:20:39 32° 109° (ESE) 1,070 3.8 -17.7°
